Simultaneous Nadir Overpasses (SNOs) Predictions

Prediction of SNOs between GOES-15 and METOP-A Satellite Orbit:

Table of predicted SNOs for the next 14.0 days since TLE Epoch: 9/23/2017
Index Date Time (GOES-15) GOES-15 Lat,Lon METOP-A Lat,Lon Distance(km) Time Diff (sec)
1 09/24/2017 18:33:30 -0.26,-135.42 0.05,-136.81 158.06 80
2 09/25/2017 18:15:29 -0.24,-135.44 -1.05,-131.81 412.71 80
3 09/27/2017 06:34:27 0.26,-135.39 0.01,-136.40 116.37 80
4 09/28/2017 06:11:07 0.24,-135.39 1.12,-131.41 453.34 80
5 09/29/2017 18:29:58 -0.26,-135.45 -0.14,-135.98 60.45 80
6 10/02/2017 06:30:56 0.26,-135.40 0.21,-135.57 20.00 80
7 10/04/2017 18:29:07 -0.27,-135.44 -0.34,-135.15 33.41 80
8 10/06/2017 06:48:05 0.28,-135.39 -0.69,-139.74 495.33 80
9 10/07/2017 06:24:45 0.27,-135.38 0.41,-134.74 72.85 80




NCC Satellite Simultaneous Nadir Overpasses (SNOs) Prediction Service
